Temp
-3 -2 -2 -2 -2 -2 -2 -2 -2 -1 -0 -1 -1 -1 -1 2 1 1 3 3 4 4 3 3 3 3 3 3 3 3 3 3 3 3 3 3 3 3 3 3 3 4 4 4
-4 -3 -2 -3 -3 -3 -2 -3 -2 -1 -1 -2 -2 -1 0 2 3 2 3 4 3 3 3 3 3 2 3 4 3 3 3 3 3 3 3 3 3 2 3 3 3 3 4 4
-4 -2 -3 -3 -3 -3 -3 -3 -3 -3 -2 -2 -2 -1 1 2 2 3 3 2 2 1 2 3 3 3 1 2 3 3 3 3 3 3 3 3 3 3 3 3 3 3 3 4
-4 -3 -3 -3 -3 -4 -4 -3 -3 -3 -3 -3 -3 -4 -0 2 2 2 1 1 1 2 3 3 3 3 3 3 3 3 3 2 3 3 3 3 3 3 3 2 2 3 3 4
-3 -3 -3 -2 -3 -4 -4 -3 -3 -3 -3 -4 -3 -2 -1 2 1 1 0 0 1 1 2 2 3 3 3 3 2 2 3 3 2 2 2 3 3 2 2 2 2 2 3 3
-3 -3 -3 -2 -3 -4 -4 -4 -4 -4 -4 -6 -2 -2 -1 1 -0 -0 -0 -0 -0 0 1 2 2 3 3 3 3 2 3 3 3 2 2 3 2 2 3 2 2 2 2 3
-4 -3 -4 -3 -3 -4 -4 -5 -6 -6 -6 -7 -2 -1 -0 0 -0 -0 -1 -1 -2 -1 -0 0 1 2 2 3 3 2 3 3 3 3 2 2 2 2 2 2 2 2 2 2
-5 -4 -4 -5 -5 -5 -5 -5 -5 -8 -7 -5 -3 -2 -1 -1 -1 -1 -2 -2 -2 -2 -2 -1 -1 0 1 2 2 2 2 2 3 2 3 2 2 2 2 2 2 2 2 2
-6 -5 -5 -6 -5 -5 -5 -5 -5 -5 -4 -6 -3 -2 -1 -1 -2 -4 -3 -3 -2 -3 -3 -3 -3 -2 -1 0 2 2 2 2 2 2 2 2 2 2 2 1 1 2 2 2
-8 -8 -6 -6 -6 -5 -6 -6 -6 -5 -10 -9 -3 -2 -1 -3 -4 -4 -4 -3 -3 -3 -3 -3 -3 -3 -2 -2 -0 1 1 2 2 2 2 1 1 2 1 1 1 1 1 2
-10 -10 -7 -7 -7 -6 -7 -7 -7 -7 -6 -7 -8 -3 -2 -4 -5 -5 -4 -4 -4 -3 -4 -3 -3 -3 -3 -2 -2 -1 1 1 2 2 1 1 1 1 1 1 1 1 1 1
-11 -11 -11 -9 -8 -8 -9 -8 -9 -9 -7 -7 -6 -5 -4 -6 -6 -5 -5 -5 -4 -4 -4 -4 -3 -3 -3 -3 -2 -1 -0 1 2 2 1 1 1 1 1 0 1 1 1 1
-11 -12 -12 -10 -8 -9 -10 -11 -11 -12 -12 -10 -9 -6 -4 -4 -5 -6 -6 -5 -5 -5 -4 -4 -4 -3 -3 -3 -2 -2 -1 -0 1 2 1 1 1 1 1 0 0 0 0 1
-12 -13 -13 -12 -10 -12 -12 -12 -12 -12 -12 -12 -12 -9 -8 -5 -4 -5 -5 -5 -6 -5 -4 -5 -4 -3 -4 -4 -3 -2 -1 -1 0 1 2 1 1 1 0 0 -0 -0 0 0
-14 -14 -13 -13 -13 -14 -13 -13 -13 -13 -13 -13 -10 -12 -10 -11 -10 -9 -5 -6 -7 -7 -6 -5 -5 -4 -4 -4 -4 -3 -2 -1 -1 0 1 1 1 1 0 -0 -1 -1 -0 -0
-15 -15 -15 -15 -15 -15 -14 -14 -14 -14 -14 -14 -14 -13 -13 -12 -12 -12 -11 -9 -7 -7 -7 -7 -6 -5 -5 -4 -4 -3 -2 -1 -0 -0 0 1 0 0 -0 -1 -1 -1 -1 -1
-15 -15 -16 -16 -15 -15 -15 -14 -14 -14 -14 -14 -14 -12 -13 -13 -13 -13 -13 -12 -10 -9 -8 -8 -7 -6 -5 -4 -4 -4 -3 -2 -1 -0 -0 0 0 -0 -1 -1 -2 -1 -1 -1
-16 -16 -16 -16 -16 -17 -15 -14 -14 -14 -14 -13 -13 -13 -13 -14 -14 -14 -14 -13 -12 -12 -11 -9 -9 -7 -6 -5 -5 -4 -3 -3 -1 -1 -0 -0 0 -1 -1 -2 -2 -2 -2 -1
-15 -15 -16 -16 -16 -15 -14 -14 -14 -14 -14 -14 -14 -14 -14 -14 -14 -14 -14 -14 -14 -13 -12 -11 -10 -9 -6 -5 -5 -4 -3 -3 -2 -1 -1 -1 -1 -1 -2 -2 -2 -2 -2 -2
-14 -16 -16 -16 -16 -17 -14 -12 -14 -14 -14 -14 -14 -14 -14 -14 -14 -14 -14 -14 -14 -13 -13 -12 -11 -10 -8 -6 -5 -4 -4 -3 -2 -2 -1 -1 -2 -2 -2 -2 -2 -2 -2 -2
-15 -16 -16 -16 -16 -15 -14 -13 -14 -15 -14 -13 -14 -14 -14 -14 -14 -15 -14 -14 -14 -14 -13 -13 -12 -11 -9 -8 -6 -5 -4 -3 -3 -2 -1 -1 -2 -2 -2 -2 -2 -3 -3 -2
-15 -16 -16 -16 -16 -16 -13 -14 -15 -13 -14 -15 -15 -15 -15 -15 -15 -15 -14 -14 -14 -14 -14 -13 -13 -11 -10 -9 -7 -5 -5 -4 -3 -2 -1 -1 -2 -2 -2 -2 -3 -3 -3 -3
-15 -15 -15 -15 -15 -14 -14 -15 -15 -15 -15 -15 -15 -15 -15 -15 -15 -15 -14 -14 -14 -14 -14 -14 -14 -12 -10 -9 -7 -6 -5 -4 -3 -2 -2 -3 -2 -2 -3 -3 -3 -3 -3 -3
-15 -15 -15 -16 -15 -15 -15 -15 -15 -15 -15 -15 -15 -15 -15 -16 -16 -15 -15 -15 -15 -14 -14 -14 -14 -12 -10 -9 -8 -7 -6 -4 -3 -2 -2 -2 -4 -2 -3 -3 -3 -3 -3 -3
-16 -16 -15 -15 -15 -15 -15 -15 -16 -16 -16 -16 -15 -16 -16 -16 -16 -15 -15 -15 -15 -15 -14 -14 -14 -13 -10 -10 -10 -8 -7 -5 -4 -3 -3 -3 -3 -3 -3 -3 -3 -3 -3 -3
-15 -15 -16 -16 -16 -16 -16 -16 -16 -16 -16 -16 -16 -16 -16 -16 -16 -16 -15 -15 -15 -15 -15 -15 -15 -13 -11 -10 -9 -8 -7 -6 -5 -4 -3 -4 -3 -4 -4 -4 -4 -4 -4 -4
Height
3052 3053 3050 3052 3051 3050 3050 3050 3049 3048 3050 3048 3045 3043 3043 3042 3042 3042 3043 3044 3045 3047 3051 3052 3054 3055 3055 3059 3063 3068 3072 3076 3079 3083 3087 3090 3093 3097 3099 3101 3102 3103 3104 3104
3051 3049 3050 3051 3050 3049 3048 3047 3045 3044 3045 3044 3040 3035 3036 3036 3035 3036 3038 3039 3040 3041 3043 3045 3046 3049 3048 3050 3056 3061 3065 3068 3073 3077 3081 3085 3088 3091 3094 3096 3097 3098 3099 3099
3047 3048 3048 3048 3048 3047 3045 3044 3044 3044 3041 3038 3036 3029 3031 3030 3030 3031 3033 3035 3035 3035 3035 3036 3038 3041 3043 3041 3046 3053 3058 3063 3067 3071 3074 3078 3082 3084 3088 3091 3093 3093 3093 3094
3045 3044 3043 3045 3044 3046 3044 3043 3042 3041 3040 3037 3035 3032 3026 3028 3028 3031 3030 3028 3027 3026 3028 3028 3029 3030 3034 3036 3039 3042 3049 3055 3059 3063 3067 3072 3076 3080 3084 3085 3086 3087 3089 3090
3043 3041 3041 3041 3043 3042 3042 3041 3041 3039 3037 3034 3031 3033 3024 3025 3028 3025 3024 3024 3024 3023 3022 3022 3023 3024 3025 3028 3030 3034 3038 3044 3051 3056 3061 3065 3069 3073 3076 3079 3081 3082 3084 3085
3039 3039 3038 3038 3038 3038 3039 3038 3037 3037 3036 3032 3024 3027 3023 3023 3024 3020 3021 3021 3020 3019 3018 3016 3016 3017 3018 3019 3022 3026 3029 3033 3040 3047 3053 3058 3062 3065 3069 3073 3075 3077 3077 3079
3034 3034 3033 3035 3034 3035 3036 3037 3036 3038 3036 3030 3022 3023 3020 3020 3019 3019 3018 3018 3017 3015 3013 3012 3010 3010 3011 3012 3015 3018 3021 3024 3031 3037 3043 3050 3054 3057 3062 3066 3068 3070 3072 3074
3032 3033 3031 3031 3032 3033 3033 3035 3035 3036 3030 3025 3023 3019 3017 3017 3017 3017 3015 3014 3014 3013 3010 3008 3006 3005 3006 3006 3007 3009 3012 3015 3021 3028 3035 3041 3044 3049 3055 3059 3062 3064 3066 3069
3030 3030 3029 3029 3030 3032 3031 3032 3033 3031 3027 3026 3019 3017 3017 3014 3015 3014 3011 3011 3010 3009 3008 3006 3005 3003 3002 3001 3000 3001 3004 3007 3012 3018 3026 3031 3036 3042 3048 3052 3055 3058 3061 3064
3027 3027 3025 3026 3027 3028 3028 3028 3030 3029 3031 3027 3011 3011 3010 3010 3009 3008 3007 3007 3007 3006 3006 3005 3004 3002 3000 2998 2996 2995 2998 3000 3005 3011 3017 3021 3028 3035 3040 3044 3049 3052 3056 3059
3023 3025 3024 3023 3024 3023 3025 3024 3024 3024 3021 3017 3015 3010 3007 3005 3004 3004 3004 3003 3002 3002 3002 3001 3001 2999 2997 2995 2993 2992 2992 2994 2998 3003 3008 3013 3020 3025 3031 3037 3041 3046 3050 3052
3021 3021 3017 3018 3020 3022 3020 3020 3020 3019 3014 3011 3010 3007 3004 3002 3002 3001 3000 2999 2996 2998 2998 2997 2998 2996 2994 2992 2991 2988 2988 2988 2991 2996 3000 3005 3011 3016 3023 3029 3035 3039 3043 3046
3017 3018 3015 3012 3014 3016 3014 3015 3016 3014 3012 3006 3009 2996 2999 2995 2996 2998 2994 2991 2993 2992 2991 2992 2994 2992 2990 2988 2987 2986 2984 2984 2985 2987 2992 2997 3002 3009 3016 3022 3027 3032 3036 3040
3014 3013 3014 3011 3012 3014 3013 3012 3013 3013 3010 3003 2997 2983 2992 2990 2986 2989 2988 2984 2984 2987 2985 2985 2986 2987 2986 2984 2983 2981 2980 2979 2980 2980 2984 2989 2995 3002 3009 3015 3020 3025 3029 3032
3010 3006 3006 3005 3006 3007 3005 3004 3005 3004 3001 3002 2980 2989 2985 2989 2986 2980 2979 2978 2978 2976 2975 2976 2977 2980 2980 2978 2977 2976 2975 2974 2974 2974 2977 2981 2988 2994 3000 3005 3011 3017 3021 3025
3004 3000 3001 2997 3000 3001 2996 2996 2995 2994 2992 2991 2985 2976 2983 2982 2979 2976 2974 2972 2970 2967 2965 2967 2969 2971 2972 2971 2970 2969 2969 2968 2968 2967 2969 2973 2977 2984 2990 2996 3003 3008 3013 3017
2998 2997 2996 2988 2995 2995 2986 2984 2985 2984 2983 2983 2977 2971 2973 2972 2970 2967 2966 2965 2963 2961 2958 2957 2959 2961 2962 2963 2962 2962 2961 2961 2961 2962 2962 2965 2968 2974 2981 2988 2994 3000 3006 3010
2987 2989 2990 2985 2990 2985 2972 2974 2975 2974 2973 2974 2970 2966 2966 2965 2963 2960 2957 2957 2956 2953 2950 2949 2948 2951 2953 2953 2953 2952 2952 2952 2953 2955 2955 2956 2959 2964 2971 2979 2986 2992 2998 3003
2977 2979 2979 2978 2975 2967 2966 2967 2967 2965 2961 2965 2963 2960 2959 2958 2957 2953 2950 2951 2948 2945 2941 2939 2939 2938 2941 2942 2942 2943 2943 2943 2944 2947 2948 2948 2951 2955 2962 2970 2978 2986 2991 2996
2967 2968 2971 2968 2961 2958 2956 2954 2957 2958 2951 2957 2956 2951 2949 2949 2946 2944 2943 2943 2940 2937 2933 2930 2929 2929 2930 2931 2930 2932 2933 2933 2935 2937 2939 2941 2944 2949 2956 2964 2972 2978 2984 2989
2958 2957 2954 2952 2950 2947 2945 2947 2951 2951 2941 2943 2945 2944 2942 2940 2938 2936 2934 2933 2931 2927 2924 2921 2919 2918 2920 2920 2919 2921 2923 2925 2926 2928 2931 2933 2936 2942 2950 2958 2963 2970 2975 2980
2949 2946 2944 2945 2942 2938 2936 2939 2938 2932 2935 2935 2934 2934 2932 2931 2929 2928 2926 2923 2921 2918 2915 2913 2908 2908 2910 2910 2908 2911 2913 2915 2916 2918 2921 2926 2928 2934 2940 2947 2954 2960 2966 2972
2936 2934 2930 2930 2926 2927 2929 2927 2928 2928 2927 2926 2925 2924 2924 2922 2920 2919 2916 2914 2912 2909 2906 2904 2900 2898 2901 2900 2898 2900 2903 2905 2906 2908 2911 2917 2921 2925 2932 2938 2945 2951 2957 2963
2924 2923 2919 2921 2919 2920 2920 2922 2922 2920 2918 2917 2915 2914 2914 2913 2911 2908 2907 2905 2902 2899 2897 2894 2890 2889 2890 2890 2889 2890 2893 2894 2896 2899 2901 2905 2912 2917 2924 2929 2935 2941 2947 2954
2921 2919 2915 2912 2912 2911 2913 2911 2910 2908 2908 2905 2904 2905 2904 2904 2900 2899 2898 2895 2892 2889 2887 2885 2881 2879 2879 2879 2880 2882 2883 2884 2886 2888 2892 2896 2902 2909 2915 2921 2928 2934 2941 2947
2912 2910 2909 2905 2906 2903 2901 2901 2902 2900 2898 2897 2896 2895 2895 2894 2891 2889 2888 2885 2881 2879 2878 2876 2873 2869 2869 2870 2871 2873 2875 2875 2876 2879 2883 2888 2892 2900 2907 2913 2919 2925 2931 2936
Wind_Speed
12 13 15 8 12 14 17 19 22 23 21 24 28 30 31 26 26 26 23 25 23 22 19 22 27 37 42 41 40 38 36 34 35 32 32 32 30 29 27 25 24 23 23 22
14 19 11 14 18 21 19 19 23 24 13 13 25 31 29 27 27 27 22 22 23 21 22 22 25 30 40 44 43 41 39 38 37 34 32 34 33 31 31 29 26 23 24 23
18 8 8 15 14 14 14 16 17 19 22 26 23 25 7 6 11 9 8 12 15 20 22 22 26 30 35 43 41 44 43 40 38 35 35 37 37 36 34 30 26 26 24 23
13 11 16 14 13 11 18 14 16 16 14 6 5 8 27 18 12 10 10 13 16 19 21 23 27 28 33 38 40 41 46 45 42 39 37 36 35 34 31 30 29 28 25 23
7 11 14 15 12 9 10 14 14 16 16 19 19 10 9 6 4 8 9 10 12 14 16 20 24 26 31 34 38 39 42 48 48 43 40 38 34 32 34 34 31 28 25 23
19 17 20 15 14 16 14 15 14 13 11 6 20 16 4 4 4 9 4 6 7 9 11 16 22 24 28 31 35 39 43 44 47 49 46 42 38 37 37 34 32 29 25 23
7 14 18 14 16 14 12 7 4 2 2 6 5 6 14 11 7 10 3 3 4 3 7 9 13 20 23 27 31 34 42 44 44 47 48 47 45 42 38 35 34 30 26 24
6 4 11 10 7 7 6 10 5 5 1 3 7 5 6 3 6 9 12 8 3 4 6 7 7 9 18 21 25 32 39 43 42 43 43 43 46 42 38 36 34 30 27 25
4 5 7 10 12 8 2 10 13 12 22 7 11 16 17 13 8 6 10 5 5 5 10 10 12 10 9 16 20 25 33 38 41 42 43 41 45 40 39 37 34 30 28 26
9 11 12 13 13 13 15 9 5 9 2 5 7 17 6 20 16 14 14 12 4 8 8 12 12 15 14 12 16 20 29 35 37 38 40 40 42 40 39 38 35 31 29 28
9 8 8 9 3 7 6 6 10 13 11 3 1 4 12 16 13 8 7 8 11 5 13 18 17 15 16 16 13 17 22 32 36 37 38 37 39 42 41 39 36 32 30 29
11 7 12 18 13 8 11 11 11 6 4 8 10 21 9 2 8 12 13 16 21 19 20 23 24 20 20 18 17 14 18 25 35 36 38 39 39 42 41 39 35 33 32 30
8 6 8 13 5 12 7 6 6 9 9 20 5 14 22 26 21 19 31 33 28 28 29 31 28 21 24 21 19 16 14 19 27 37 38 38 40 42 40 38 36 35 33 31
16 17 17 15 14 17 22 21 16 15 15 15 29 46 36 44 46 41 44 48 50 42 40 44 37 27 24 23 21 19 17 15 21 31 38 37 40 41 39 38 37 34 33 32
14 23 22 27 25 25 27 27 27 25 32 26 54 43 51 48 49 52 55 56 53 52 51 46 42 32 28 23 23 20 20 19 18 24 34 40 40 42 41 40 38 36 35 34
19 23 18 27 23 24 31 29 28 29 33 32 41 49 42 40 43 45 49 54 53 53 55 52 47 39 35 28 24 23 22 21 22 21 27 39 44 45 44 42 39 38 36 34
23 24 18 28 21 17 23 28 28 30 26 24 34 42 39 37 39 37 38 41 44 50 54 55 51 46 42 32 27 24 24 22 24 23 23 32 44 48 47 44 41 39 37 34
34 30 28 28 20 12 27 25 21 26 28 29 34 40 35 33 31 34 36 38 38 41 45 47 47 42 38 35 31 28 25 26 26 26 24 27 41 49 48 45 42 40 36 34
39 39 31 24 23 31 31 33 29 29 40 37 36 31 34 36 38 37 34 36 35 37 42 44 44 42 37 33 33 31 25 27 27 28 26 25 36 47 48 45 42 38 35 34
24 33 40 30 14 12 35 37 33 28 36 30 31 37 39 30 33 36 37 29 29 31 36 40 42 40 37 34 35 32 26 26 28 29 28 26 32 41 45 42 39 36 34 33
29 29 40 41 31 31 45 40 33 23 46 38 34 35 32 34 35 36 38 32 31 31 32 35 38 38 35 34 36 33 29 26 28 29 31 28 33 40 41 40 38 35 35 34
37 31 29 28 28 22 43 37 38 41 29 27 31 32 30 35 35 37 37 36 35 35 35 35 37 35 31 31 35 33 31 28 29 28 29 33 33 42 43 42 39 37 36 34
43 46 40 35 28 31 28 26 24 27 33 34 30 26 30 31 35 35 35 37 38 39 39 37 36 33 29 28 32 32 30 30 28 28 29 35 35 42 45 43 41 39 38 36
33 34 36 34 38 39 41 39 37 40 35 33 31 32 34 38 39 38 36 37 38 39 39 36 36 28 28 29 28 28 28 29 27 28 32 34 39 41 45 45 43 41 40 37
28 26 29 31 34 36 36 35 31 28 26 25 28 29 33 34 38 36 31 33 39 40 39 37 37 28 26 30 27 24 26 27 27 28 32 40 35 39 43 45 43 41 38 37
29 30 34 36 30 32 33 30 29 29 30 26 26 28 31 34 39 39 36 35 39 41 39 37 36 30 26 29 25 22 23 22 25 28 32 38 34 42 41 42 41 41 39 37
Wind_Direction
287 267 269 293 303 297 275 270 273 275 266 269 273 279 281 283 269 263 275 279 277 270 272 259 246 243 243 235 235 234 233 234 237 237 238 240 242 247 255 261 264 265 269 265
265 288 290 260 253 255 258 270 278 288 304 286 296 291 294 293 284 277 276 280 279 269 258 250 247 242 249 250 236 234 233 234 238 240 241 237 243 248 254 259 262 265 267 263
258 255 281 280 277 280 273 274 285 285 298 289 293 296 311 313 324 304 300 294 278 266 262 254 242 241 239 249 244 237 236 236 238 240 239 238 240 245 253 259 263 264 264 256
262 273 263 276 285 269 279 275 266 278 293 281 323 291 292 299 293 314 278 246 250 249 247 253 249 239 235 242 246 242 236 238 239 237 238 240 247 252 256 256 257 261 263 251
248 274 283 285 297 265 249 276 285 288 281 291 287 254 284 308 267 232 219 219 248 274 267 257 251 253 244 235 242 242 238 236 237 239 240 241 244 250 252 253 257 261 260 247
275 271 275 285 268 266 261 277 288 286 284 265 278 226 287 11 120 198 245 296 298 290 282 270 255 253 248 241 237 239 241 237 235 237 240 242 246 249 252 253 256 258 255 243
261 291 285 280 286 284 277 252 306 251 215 232 244 228 221 262 295 278 276 104 64 342 292 296 270 250 247 244 237 239 241 240 236 234 237 241 244 247 249 249 252 254 251 241
288 299 232 274 260 228 250 227 226 251 302 354 292 244 153 263 268 220 161 127 105 40 35 8 329 280 251 244 244 239 237 238 236 232 234 237 240 243 244 246 250 252 247 241
275 231 233 276 270 260 217 225 251 279 286 267 250 258 261 268 154 156 215 189 53 41 22 13 9 349 304 251 245 238 234 233 233 232 233 239 235 238 241 245 248 249 245 241
262 276 264 272 271 270 248 241 229 217 264 238 252 240 191 154 165 190 227 237 230 32 12 357 351 354 345 315 253 238 234 232 233 232 231 235 230 236 238 241 245 247 242 239
246 246 243 241 218 249 252 243 231 251 249 265 307 284 168 152 188 219 272 287 265 299 344 349 337 335 336 329 313 261 240 232 233 231 228 230 232 233 230 236 241 244 240 238
259 276 263 259 237 224 268 253 257 227 266 246 262 245 160 116 274 274 271 276 279 283 305 324 325 322 326 321 315 303 263 243 233 232 230 230 231 225 225 233 238 241 239 237
266 244 304 306 253 235 238 251 243 295 288 258 260 250 221 251 255 273 293 287 284 289 284 302 312 302 322 317 311 306 294 263 240 232 229 231 226 221 224 229 234 239 237 237
272 261 246 244 264 285 288 276 273 282 280 277 259 262 257 254 263 269 275 281 291 288 282 295 300 296 312 314 304 296 298 288 257 238 228 226 223 221 221 227 233 237 236 236
266 265 268 272 273 277 274 271 270 265 263 262 270 281 277 289 288 283 269 277 284 288 285 289 291 288 296 305 296 290 282 287 275 252 235 225 221 219 220 224 229 232 234 235
266 268 271 271 271 269 272 271 269 268 270 271 276 280 286 289 286 287 286 282 279 283 287 290 291 288 287 295 285 281 270 268 278 270 249 230 221 219 220 223 226 229 232 234
263 261 259 263 273 268 266 259 265 266 270 271 277 288 302 301 297 296 299 290 288 286 286 286 289 288 285 284 277 273 272 262 266 273 260 241 224 220 220 221 224 227 231 232
262 257 254 256 262 248 260 275 271 260 260 261 269 284 290 292 291 299 298 301 298 290 289 287 289 285 282 280 270 265 270 265 257 263 268 251 229 219 218 220 223 226 230 231
259 256 245 240 232 252 266 262 252 257 269 272 277 284 280 277 279 285 281 294 301 298 290 287 288 285 278 271 261 258 260 265 256 255 259 255 234 219 217 218 222 225 229 226
251 250 238 242 241 246 263 279 276 274 269 279 272 270 284 281 278 281 288 303 295 292 293 286 283 282 277 272 261 255 254 256 256 251 246 247 233 220 218 217 220 225 226 223
251 236 230 238 246 252 264 274 268 263 267 282 281 272 274 269 267 279 288 293 295 296 294 293 288 282 275 273 260 258 256 261 254 251 242 238 229 219 215 217 219 223 223 222
254 241 235 236 244 251 269 268 256 273 288 279 275 269 270 267 272 279 288 293 293 295 296 295 293 283 273 272 262 260 258 260 252 248 237 237 226 219 214 215 217 220 221 221
254 248 240 235 239 259 272 269 264 279 281 277 273 255 264 269 280 286 290 291 293 294 293 299 297 291 273 269 261 257 259 256 250 248 231 232 231 220 216 216 218 219 219 219
270 259 247 249 251 263 269 267 274 278 277 278 276 265 261 275 282 284 287 290 292 294 295 298 298 291 273 271 260 259 257 253 249 248 235 221 231 223 218 216 217 219 219 219
287 286 275 272 275 276 273 280 288 284 282 274 266 267 269 275 278 283 288 294 290 288 293 296 296 289 268 273 259 259 258 253 246 239 233 214 230 225 219 218 217 218 219 220
282 286 279 276 288 279 283 287 283 281 280 271 274 276 275 272 275 280 286 294 294 287 292 292 291 286 269 272 258 254 254 247 238 231 226 217 227 217 220 219 219 215 214 219